sat.trackr.live / text

‹ back to catalog

STARLINK-6176

NORAD 56388 · 2023-061Q

PAYLOAD ACTIVE UNKNOWN

§ Identity

Operator
Country
US
Launch date
2023-05-04
Launch site
AFETR
Launch vehicle
Mass (kg)
RCS (m²)

Purposes: comms

External: N2YO · Heavens-Above · Gunter

§ Orbital elements

Epoch: 2026-09-20T00:12:00.578592Z

Period
94.27 min
Inclination
43.0013°
Eccentricity
0.0000817
Mean motion
15.27579319 rev/d
Perigee alt
482.5 km
Apogee alt
483.6 km
Semi-major
6,861.2 km
B*
-8.9199e-6
RAAN
180.8627°
Arg perigee
263.6092°
Mean anomaly
96.4667°
Rev number
18,646

§ Raw data

STARLINK-61761 56388U 23061Q   26263.00834003 -.00000507  00000+0 -89199-5 0  99932 56388  43.0013 180.8627 0000817 263.6092  96.4667 15.27579319186461

JSON: /api/v1/satellites/56388 · /tle

For live sub-satellite position, see the globe view (requires WebGL).

§ Visibility from observer

Set your observer location to see the next 7 days of passes ≥ 10°. The values pass through the URL so the page stays shareable.

No JS? Fill the form by hand. The geolocation button needs JavaScript.